[[{"header":{"parameterUnit":"m.s-1","parameterCategory":1,"la1":30.2991,"la2":30.254,"lo1":-89.0895,"lo2":-89.0444,"dy":0.0017,"dx":0.0017,"nx":28,"ny":28,"refTime":"2023-11-17T09:00:00:Z","depth":0,"parameterNumber":2,"parameterNumberName":"U-component_of_WINDS"},"data":[0,0,0,0,0,0,0,0,0,0,0,0,0,0,0,0,0,0,0,0,0,0,0,0,0,0,0,0,0,0,0,0,0,0,0,0,0,0,0,0,0,0,0,0,0,0,0,0,0,0,0,0,0,0,0,0,0,0,0.5876,0.5876,0,0.5875,0.5875,0.5875,0.5866,0.5866,0.5866,0.5866,0.5865,0.5866,0.5866,0,0,0,0,0,0,0,0,0,0,0,0,0,0.5875,0.5875,0.5876,0.5876,0.5876,0.5875,0.5875,0.5875,0.5866,0.5866,0.5866,0.5866,0.5865,0.5866,0.5866,0,0,0,0,0,0,0,0,0,0,0,0,0,0.5874,0.5875,0.5876,0.5872,0.5871,0.5875,0.5875,0.5875,0.5866,0.5866,0.5866,0.5865,0.5865,0.5866,0.5866,0.5874,0,0,0.5867,0.5867,0,0,0,0,0,0,0,0,0.5874,0.5875,0.5872,0.5872,0.5872,0.587,0.5874,0.5874,0.5866,0.5868,0.5866,0.5865,0.5867,0.5868,0.5868,0.5874,0.5874,0.5867,0.5867,0.5867,0.5867,0,0,0,0,0,0,0,0.5875,0.5875,0.5876,0.5872,0.5872,0.5871,0.587,0.5874,0.587,0.5868,0.5868,0.5867,0.5867,0.5868,0.5868,0.5874,0.5867,0.5867,0.5867,0.5867,0.5888,0.5889,0,0,0,0,0,0,0.5875,0.5875,0.5876,0.5876,0.5872,0.5871,0.5871,0.5871,0.587,0.5869,0.5868,0.5867,0.5867,0.5868,0.5868,0.5878,0.5867,0.5867,0.5867,0.5888,0.5888,0.5889,0,0,0,0,0,0,0.5875,0.5875,0.5876,0.5875,0.5875,0.5871,0.5872,0.5871,0.5872,0.5869,0.5869,0.5869,0.5867,0.5867,0.5873,0.5878,0.5867,0.5868,0.5887,0.5888,0.5888,0.5898,0,0,0,0,0,0,0.5875,0.5875,0.5877,0.5875,0.5875,0.588,0.5872,0.5871,0.5872,0.5871,0.587,0.587,0.5867,0.5872,0.5873,0.5878,0.5868,0.5887,0.5888,0.5888,0.5897,0.5899,0.59,0,0,0,0,0,0.5875,0.588,0.5877,0.5877,0.5877,0.588,0.588,0.5876,0.5872,0.5875,0.5874,0.587,0.5877,0.5873,0.5874,0.5879,0.5886,0.5887,0.5888,0.5896,0.5898,0.59,0,0,0,0,0,0,0.5882,0.5879,0.5876,0.588,0.5881,0.5878,0.5881,0.5878,0.588,0.5879,0.5875,0.5875,0.5881,0.5881,0.5876,0.5888,0.5881,0.5882,0.5887,0.5889,0.5891,0.5891,0.5868,0,0,0,0,0,0.5884,0.5886,0.5883,0.5887,0.5888,0.5885,0.5886,0.5883,0.5883,0.5883,0.5882,0.5883,0.5886,0.5888,0.589,0.5897,0.5898,0.5902,0.5903,0.5904,0.5905,0.5911,0.5913,0.5892,0.5892,0.5892,0,0,0.5888,0.5887,0.5888,0.5889,0.5888,0.5891,0.5885,0.5887,0.589,0.5884,0.5889,0.5888,0.5889,0.5896,0.5899,0.5896,0.5911,0.5905,0.5906,0.5907,0.5912,0.5914,0.5916,0.5892,0.5892,0.5892,0,0,0.5897,0.5896,0.59,0.59,0.59,0.5899,0.59,0.5899,0.5898,0.5903,0.5899,0.5903,0.5907,0.5908,0.591,0.5922,0.5919,0.5923,0.5931,0.5937,0.5938,0.594,0.5945,0.5947,0.5924,0.5924,0.5924,0,0.5903,0.5906,0.5902,0.5906,0.5907,0.5902,0.5907,0.5908,0.5909,0.591,0.5906,0.5913,0.5913,0.5921,0.5925,0.5925,0.5928,0.5923,0.5938,0.594,0.5941,0.5946,0.5948,0.5925,0.5925,0.5925,0.5925,0,0.5913,0.5916,0.5919,0.592,0.5922,0.5926,0.5924,0.5927,0.5925,0.5924,0.5931,0.5931,0.5934,0.5936,0.5934,0.5944,0.5942,0.5939,0.5932,0.5944,0.5949,0.595,0.5926,0.5925,0.5925,0.5925,0,0,0.5925,0.5926,0.5927,0.5928,0.5929,0.5932,0.5937,0.594,0.5942,0.5944,0.5949,0.5954,0.5951,0.5952,0.5951,0.5956,0.5967,0.5952,0.5952,0.5955,0.5981,0.5983,0.5986,0.5966,0.5966,0.5966,0.5981,0,0.5934,0.5941,0.594,0.5948,0.5951,0.5948,0.5953,0.5954,0.5954,0.5958,0.5959,0.5963,0.5958,0.5959,0.5964,0.5965,0.5973,0.5964,0.5971,0.5971,0.5971,0.5988,0.599,0.6004,0.5983,0.5983,0.5983,0,0.5945,0.5948,0.5956,0.5958,0.5959,0.5963,0.5967,0.5971,0.5973,0.5973,0.5976,0.5974,0.5981,0.5975,0.5985,0.5979,0.5982,0.5983,0.5984,0.5984,0.5977,0.5989,0.6008,0.601,0.5986,0.5986,0.5985,0,0.5954,0.5959,0.5965,0.5967,0.5969,0.5972,0.5974,0.5976,0.5979,0.5983,0.5985,0.5989,0.5992,0.5996,0.5996,0.5992,0.6007,0.6,0.6008,0.6008,0.601,0.601,0.603,0.6012,0.6012,0.6012,0.6012,0,0.5964,0.5969,0.5969,0.5973,0.598,0.5979,0.5986,0.5987,0.599,0.5995,0.5992,0.5997,0.5997,0.6003,0.6003,0.6012,0.6013,0.6014,0.6014,0.6014,0.6014,0.6016,0.6015,0.6013,0.6013,0.6012,0.6012,0,0.5974,0.5974,0.5981,0.5983,0.5984,0.5989,0.5992,0.5996,0.5997,0.6003,0.6005,0.6007,0.6013,0.6014,0.6021,0.6022,0.6033,0.6032,0.6031,0.6031,0.6039,0.6038,0.606,0.6064,0.6044,0.6044,0.6044,0,0.598,0.5984,0.5988,0.5991,0.5993,0.5998,0.6001,0.6001,0.6004,0.6009,0.6014,0.602,0.6025,0.6036,0.6038,0.6045,0.6044,0.6051,0.6045,0.6045,0.6045,0.6044,0.6045,0.6052,0.6053,0.6053,0.6053,0,0.5992,0.5992,0.5996,0.6002,0.6005,0.6009,0.6013,0.6016,0.6017,0.6021,0.6028,0.6032,0.6041,0.6048,0.6054,0.6057,0.6056,0.6055,0.6057,0.6057,0.6057,0.6058,0.6035,0.6055,0.6054,0.6054,0.6054,0.6054,0.6,0.6005,0.6008,0.6014,0.6017,0.6021,0.6026,0.6028,0.6033,0.604,0.604,0.6048,0.6053,0.6062,0.6066,0.6073,0.607,0.6073,0.6074,0.6074,0.6076,0.6057,0.6074,0.6074,0.6074,0.6074,0.6074,0,0.6012,0.6015,0.602,0.6026,0.6031,0.603,0.6034,0.6039,0.6046,0.605,0.6056,0.6065,0.6072,0.6076,0.6084,0.6089,0.6088,0.6091,0.609,0.6091,0.6077,0.6074,0.6091,0.6091,0.6091,0.6091,0.6091,0.6091,0.6019,0.6027,0.6028,0.6038,0.6041,0.6048,0.6052,0.6056,0.606,0.607,0.6076,0.6079,0.6084,0.6092,0.61,0.6101,0.6104,0.6106,0.6107,0.6094,0.6092,0.609,0.6088,0.6107,0.6107,0.6121,0.6121,0.6121]},{"header":{"parameterUnit":"m.s-1","parameterCategory":1,"la1":30.2991,"la2":30.254,"lo1":-89.0895,"lo2":-89.0444,"dy":0.0017,"dx":0.0017,"nx":28,"ny":28,"refTime":"2023-11-17T09:00:00:Z","depth":0,"parameterNumber":3,"parameterNumberName":"V-component_of_WINDS"},"data":[0,0,0,0,0,0,0,0,0,0,0,0,0,0,0,0,0,0,0,0,0,0,0,0,0,0,0,0,0,0,0,0,0,0,0,0,0,0,0,0,0,0,0,0,0,0,0,0,0,0,0,0,0,0,0,0,0,0,-3.9554,-3.9554,0,-3.9571,-3.9571,-3.9572,-3.9494,-3.9492,-3.949,-3.9488,-3.9502,-3.9505,-3.9507,0,0,0,0,0,0,0,0,0,0,0,0,0,-3.9451,-3.9453,-3.9554,-3.9554,-3.9554,-3.9571,-3.9571,-3.9572,-3.9495,-3.9492,-3.9489,-3.9487,-3.9501,-3.9504,-3.9507,0,0,0,0,0,0,0,0,0,0,0,0,0,-3.9485,-3.9454,-3.9554,-3.9518,-3.9515,-3.9571,-3.9571,-3.9572,-3.9495,-3.9492,-3.9488,-3.9485,-3.95,-3.9504,-3.9508,-3.9598,0,0,-3.9519,-3.9521,0,0,0,0,0,0,0,0,-3.9483,-3.9488,-3.9523,-3.952,-3.9517,-3.9527,-3.954,-3.9581,-3.9496,-3.9503,-3.9487,-3.9484,-3.9513,-3.9516,-3.9526,-3.9599,-3.96,-3.952,-3.9522,-3.9523,-3.9524,0,0,0,0,0,0,0,-3.948,-3.9487,-3.956,-3.9523,-3.952,-3.95,-3.9501,-3.9548,-3.9526,-3.9502,-3.9496,-3.9499,-3.9511,-3.9523,-3.9526,-3.96,-3.9519,-3.9523,-3.9525,-3.9527,-3.9749,-3.9753,0,0,0,0,0,0,-3.9483,-3.9486,-3.956,-3.9561,-3.9491,-3.9505,-3.9506,-3.9527,-3.9526,-3.9522,-3.9502,-3.9496,-3.9518,-3.9522,-3.9526,-3.9633,-3.9523,-3.9527,-3.9529,-3.9746,-3.975,-3.9754,0,0,0,0,0,0,-3.9481,-3.9491,-3.9559,-3.9522,-3.9529,-3.951,-3.9535,-3.9529,-3.9541,-3.9526,-3.9522,-3.9519,-3.9515,-3.9521,-3.9581,-3.9632,-3.9529,-3.9532,-3.9741,-3.9747,-3.9752,-3.9847,0,0,0,0,0,0,-3.9479,-3.949,-3.9525,-3.9523,-3.9531,-3.9615,-3.9538,-3.9532,-3.9548,-3.954,-3.954,-3.9537,-3.9513,-3.9576,-3.9585,-3.9636,-3.9535,-3.9737,-3.9744,-3.975,-3.984,-3.9856,-3.9869,0,0,0,0,0,-3.9475,-3.955,-3.9527,-3.9537,-3.9575,-3.9618,-3.9623,-3.9595,-3.9553,-3.9587,-3.9578,-3.9537,-3.9625,-3.9583,-3.9593,-3.9645,-3.9733,-3.9742,-3.975,-3.9833,-3.9852,-3.9869,0,0,0,0,0,0,-3.9557,-3.9549,-3.9524,-3.9601,-3.9611,-3.9605,-3.9648,-3.9616,-3.9638,-3.9629,-3.9592,-3.9593,-3.966,-3.9658,-3.9611,-3.9733,-3.9672,-3.9682,-3.9732,-3.975,-3.9765,-3.9764,-3.9538,0,0,0,0,0,-3.9585,-3.9622,-3.9612,-3.9681,-3.9688,-3.9667,-3.9685,-3.9663,-3.9672,-3.9675,-3.967,-3.9679,-3.9709,-3.9729,-3.9756,-3.9839,-3.9838,-3.9879,-3.9894,-3.9906,-3.9916,-3.9961,-3.9979,-3.9781,-3.9781,-3.9781,0,0,-3.9641,-3.9641,-3.9666,-3.9698,-3.9703,-3.9742,-3.9671,-3.9715,-3.9743,-3.9681,-3.9739,-3.9736,-3.9743,-3.9816,-3.9848,-3.9817,-3.9971,-3.9917,-3.9927,-3.993,-3.9971,-3.999,-4.0007,-3.9787,-3.9786,-3.9785,0,0,-3.9763,-3.9767,-3.9825,-3.9833,-3.9842,-3.9829,-3.9843,-3.9842,-3.9838,-3.9896,-3.985,-3.9883,-3.9935,-3.9943,-3.9953,-4.0081,-4.0044,-4.009,-4.0167,-4.0211,-4.0227,-4.0241,-4.0287,-4.0304,-4.01,-4.01,-4.01,0,-3.9831,-3.9889,-3.9859,-3.9907,-3.9922,-3.9869,-3.9928,-3.9936,-3.9953,-3.9965,-3.993,-3.9995,-3.9996,-4.0071,-4.0102,-4.0112,-4.0127,-4.009,-4.0227,-4.0241,-4.0253,-4.0297,-4.0314,-4.0105,-4.0105,-4.0104,-4.0104,0,-3.9973,-4.0014,-4.006,-4.008,-4.01,-4.0153,-4.013,-4.0154,-4.013,-4.012,-4.018,-4.0179,-4.0206,-4.0221,-4.0198,-4.0293,-4.0274,-4.0234,-4.0171,-4.0278,-4.0319,-4.0335,-4.0113,-4.0111,-4.011,-4.0108,0,0,-4.0147,-4.0152,-4.0169,-4.0178,-4.0185,-4.0216,-4.0266,-4.0293,-4.0315,-4.0329,-4.037,-4.0416,-4.038,-4.0392,-4.0369,-4.0407,-4.0509,-4.0362,-4.0362,-4.0391,-4.0615,-4.0646,-4.0666,-4.0485,-4.0488,-4.0491,-4.0615,0,-4.0268,-4.0356,-4.0331,-4.0419,-4.0457,-4.0408,-4.0451,-4.046,-4.0452,-4.0482,-4.0472,-4.0506,-4.0455,-4.0462,-4.0498,-4.0489,-4.0554,-4.048,-4.0523,-4.0525,-4.0524,-4.0687,-4.0719,-4.0837,-4.063,-4.0633,-4.0635,0,-4.0421,-4.0444,-4.0536,-4.0538,-4.0553,-4.0593,-4.0617,-4.0646,-4.0655,-4.0646,-4.0661,-4.063,-4.0679,-4.0617,-4.0684,-4.0635,-4.065,-4.0649,-4.0653,-4.0656,-4.0587,-4.0696,-4.0873,-4.0891,-4.0659,-4.0657,-4.0656,0,-4.0541,-4.0593,-4.0656,-4.0665,-4.0669,-4.0698,-4.0701,-4.0707,-4.0725,-4.0745,-4.0757,-4.0782,-4.0796,-4.0815,-4.0792,-4.0749,-4.0863,-4.0798,-4.0857,-4.0858,-4.0884,-4.0883,-4.1068,-4.0893,-4.0893,-4.0893,-4.0892,0,-4.0679,-4.0738,-4.071,-4.0748,-4.0812,-4.0782,-4.0846,-4.0843,-4.0849,-4.0886,-4.0844,-4.0879,-4.0845,-4.0877,-4.0859,-4.0918,-4.0924,-4.0918,-4.0913,-4.0923,-4.0924,-4.0933,-4.0925,-4.0897,-4.0896,-4.0895,-4.0895,0,-4.0824,-4.0807,-4.0872,-4.0871,-4.0872,-4.092,-4.0919,-4.0954,-4.0943,-4.099,-4.0999,-4.0982,-4.1017,-4.0996,-4.1031,-4.1019,-4.1096,-4.1079,-4.1094,-4.109,-4.1151,-4.1146,-4.1349,-4.1374,-4.1183,-4.1184,-4.1186,0,-4.0913,-4.0958,-4.0963,-4.0985,-4.0991,-4.1027,-4.1046,-4.1019,-4.104,-4.1055,-4.1088,-4.112,-4.1144,-4.1203,-4.1193,-4.122,-4.1204,-4.1273,-4.1208,-4.1217,-4.1206,-4.1205,-4.1209,-4.1287,-4.1289,-4.1291,-4.1292,0,-4.1075,-4.1065,-4.1095,-4.1123,-4.1148,-4.1168,-4.1184,-4.1204,-4.1176,-4.1202,-4.1239,-4.1258,-4.1295,-4.1328,-4.1351,-4.1352,-4.1319,-4.1313,-4.1328,-4.1339,-4.1347,-4.1345,-4.1131,-4.1309,-4.1307,-4.1306,-4.1305,-4.1304,-4.1196,-4.1233,-4.1244,-4.1278,-4.1288,-4.1305,-4.1339,-4.1333,-4.1363,-4.1393,-4.1374,-4.1417,-4.1425,-4.1453,-4.1459,-4.1492,-4.1464,-4.1486,-4.1492,-4.1498,-4.1507,-4.1341,-4.1496,-4.1496,-4.1495,-4.1495,-4.1495,0,-4.1356,-4.1361,-4.1393,-4.1419,-4.1447,-4.1413,-4.1429,-4.1455,-4.1494,-4.1505,-4.1531,-4.1573,-4.1605,-4.1598,-4.1626,-4.1654,-4.1639,-4.1663,-4.1661,-4.1662,-4.153,-4.1515,-4.1674,-4.1674,-4.1674,-4.1674,-4.1674,-4.1674,-4.1443,-4.1506,-4.1498,-4.1564,-4.1568,-4.1611,-4.1624,-4.1639,-4.1648,-4.1698,-4.1725,-4.1721,-4.1725,-4.1753,-4.1781,-4.1778,-4.179,-4.182,-4.1812,-4.1689,-4.1671,-4.1654,-4.1639,-4.1823,-4.1823,-4.1941,-4.1942,-4.1943]}]]